Location: Bishop's University Astronomical Observatory
(45.3661°N, 71.8475°W)
Time: 09:21:13
(UTC-04:00)

CZ-4C R/B - Visible Passes

Search period start: 01 November 2014 00:00
Search period end: 10 November 2014 23:00
Orbit: 785 x 1218 km, 63.4° (Epoch: 31 October)

Date Brightness Start Highest point End Pass type
(mag) Time Alt. Az. Time Alt. Az. Time Alt. Az.
01 Nov 5.4 02:06:48 10° ENE 02:06:48 10° ENE 02:06:57 10° ENE visible
01 Nov 3.5 03:52:03 45° NNE 03:52:29 45° NE 03:59:32 10° ESE visible
01 Nov 3.0 05:37:19 25° WNW 05:41:17 52° WSW 05:48:31 10° SSE visible
01 Nov 3.7 19:13:16 10° SSE 19:15:22 17° SE 19:15:22 17° SE visible
01 Nov 4.3 20:59:27 10° SW 21:00:38 17° SW 21:00:38 17° SW visible
02 Nov 4.9 01:40:25 18° ENE 01:40:25 18° ENE 01:42:41 10° E visible
02 Nov 2.8 03:25:41 70° N 03:26:26 77° NE 03:33:56 10° SE visible
02 Nov 3.7 05:10:57 18° WNW 05:14:35 27° WSW 05:20:37 10° SSW visible
02 Nov 2.7 18:45:05 10° S 18:49:06 40° SSE 18:49:06 40° SSE visible
02 Nov 4.8 20:33:39 10° WSW 20:34:22 14° WSW 20:34:22 14° WSW visible
03 Nov 4.4 02:14:11 28° E 02:14:11 28° E 02:17:59 10° ESE visible
03 Nov 2.7 03:59:27 59° W 04:00:05 61° WSW 04:07:28 10° SSE visible
03 Nov 4.4 05:44:58 10° W 05:47:35 12° WSW 05:50:16 10° SW visible
03 Nov 3.7 17:32:52 10° SE 17:36:11 16° ESE 17:37:29 15° E visible
03 Nov 2.5 19:18:12 10° SW 19:22:44 63° SW 19:22:44 63° SW visible
04 Nov 3.8 02:48:03 39° ESE 02:48:03 39° ESE 02:52:35 10° SE visible
04 Nov 3.5 04:33:20 32° WSW 04:33:28 32° WSW 04:39:54 10° S visible
04 Nov 2.7 18:04:10 10° S 18:09:10 38° ESE 18:11:00 30° ENE visible
04 Nov 3.5 19:52:12 10° WSW 19:56:15 39° WNW 19:56:15 39° WNW visible
05 Nov 3.7 03:22:01 37° SSE 03:22:01 37° SSE 03:26:21 10° SSE visible
05 Nov 4.3 05:07:18 15° WSW 05:07:18 15° WSW 05:10:32 10° SW visible
05 Nov 2.1 18:37:00 10° SSW 18:42:31 81° SE 18:44:23 46° NE visible
05 Nov 4.4 20:26:56 10° W 20:29:38 22° WNW 20:29:38 22° WNW visible
06 Nov 5.2 02:10:44 12° SE 02:10:44 12° SE 02:11:10 10° SE visible
06 Nov 4.2 03:56:01 24° SSW 03:56:01 24° SSW 03:59:06 10° S visible
06 Nov 3.0 17:23:20 10° S 17:28:04 31° ESE 17:32:25 13° ENE visible
06 Nov 2.9 19:10:48 10° WSW 19:16:15 52° NW 19:17:39 43° N visible
06 Nov 5.1 21:02:11 10° WNW 21:02:52 12° WNW 21:02:52 12° WNW visible
07 Nov 5.1 02:44:45 12° SSE 02:44:45 12° SSE 02:45:10 10° SSE visible
07 Nov 4.8 04:30:03 11° SSW 04:30:03 11° SSW 04:30:21 10° SSW visible
07 Nov 2.2 17:55:52 10° SSW 18:01:19 68° ESE 18:05:34 20° NE visible
07 Nov 3.8 19:45:22 10° W 19:50:23 30° NNW 19:50:47 30° NNW visible
08 Nov 2.7 18:29:26 10° SW 18:34:57 61° NW 18:38:37 24° NNE visible
08 Nov 4.5 20:20:30 10° WNW 20:23:49 20° NW 20:23:49 20° NW visible
09 Nov 2.4 17:14:47 10° SSW 17:20:08 56° ESE 17:26:01 10° NE visible
09 Nov 3.6 19:03:49 10° W 19:08:59 34° NW 19:11:34 25° N visible
09 Nov 5.0 20:55:52 10° NW 20:56:46 12° NW 20:56:46 12° NW visible
10 Nov 2.5 17:48:08 10° SW 17:53:40 73° NW 17:59:14 13° NE visible
10 Nov 4.2 19:38:51 10° WNW 19:43:22 22° NNW 19:44:26 21° N visible
